Wind_Speed
7 6 4 2 3 4 2 3 3 1 4 6 7 8 10 10 10 11 11 11 12 12 12 11 11 10 10 10 10 10 10 9 9 8 8 7 6 6 6 5 6 7 7 7
7 5 5 4 4 4 3 2 2 1 4 5 5 7 8 10 10 9 9 10 10 11 11 11 11 10 10 10 10 11 11 10 10 9 9 8 6 6 5 5 5 6 6 6
8 6 7 7 6 5 4 3 3 0 2 4 4 5 8 10 9 8 8 9 9 9 10 10 11 11 10 10 10 10 11 11 10 10 10 10 8 7 6 6 5 5 6 6
10 10 9 8 8 6 5 4 5 3 1 2 4 5 7 7 9 8 7 8 8 9 9 10 10 10 10 10 10 10 11 11 11 10 9 9 8 8 8 7 7 6 7 7
10 11 11 9 9 9 7 7 7 5 3 2 3 5 6 6 6 7 6 6 7 7 8 8 9 9 10 10 10 10 10 10 10 10 9 9 9 8 8 8 8 8 7 7
13 13 13 11 11 9 7 6 5 3 3 4 4 5 6 7 7 7 7 5 6 7 7 7 8 9 9 10 10 9 9 10 10 10 10 9 9 9 9 9 9 8 8 8
14 14 14 12 12 10 9 7 5 5 6 5 4 6 8 10 10 9 7 5 5 6 7 7 8 9 9 10 10 10 10 10 10 10 10 10 10 10 9 9 9 9 10 9
15 15 15 14 13 12 10 10 6 6 4 3 6 8 8 10 11 10 7 5 5 6 6 6 7 8 8 9 10 10 10 11 11 11 10 10 10 10 10 10 10 10 11 11
16 15 15 15 15 14 12 10 7 8 7 6 8 10 10 10 10 10 9 8 7 7 7 7 8 7 8 8 9 10 10 11 12 12 11 11 11 11 11 12 12 12 11 12
20 18 17 16 16 15 14 11 10 11 10 10 10 11 11 10 10 11 10 9 7 8 8 8 9 9 9 9 10 10 11 11 12 13 13 12 12 13 13 14 14 13 13 13
21 20 19 18 18 16 15 14 14 14 13 11 11 11 11 10 11 12 11 11 10 8 10 10 11 11 11 11 11 11 12 12 12 13 14 13 13 14 14 15 15 15 15 15
24 21 21 20 18 17 17 16 16 16 15 14 15 16 11 10 12 13 12 12 13 11 12 11 12 12 12 12 12 12 12 13 13 14 15 14 15 15 16 16 16 17 17 16
27 27 24 21 20 20 18 18 18 17 17 18 17 16 13 13 13 14 14 14 14 14 14 14 13 13 13 13 14 13 14 15 15 16 16 16 17 17 17 17 17 17 17 17
28 29 27 24 21 20 20 19 19 20 19 20 18 16 16 17 16 16 17 16 16 17 17 16 16 15 15 15 16 16 16 17 17 17 18 19 19 19 18 18 19 19 19 19
31 30 30 28 25 23 23 22 20 21 22 21 19 19 18 20 20 19 19 20 19 19 18 18 17 17 17 18 18 18 18 18 19 19 20 21 21 20 20 20 20 20 20 20
33 33 32 31 29 26 24 24 22 21 21 21 22 21 21 22 23 23 22 20 20 20 20 19 19 19 20 20 20 20 20 20 20 21 22 23 22 22 22 22 22 21 22 22
34 34 34 33 31 29 28 26 25 25 24 24 24 24 23 24 25 24 24 22 20 21 21 21 21 21 21 22 22 22 22 22 22 23 23 24 24 23 24 24 23 23 24 24
35 35 34 33 31 32 30 26 26 27 27 27 27 25 26 28 28 27 26 24 23 24 24 23 24 24 23 24 24 25 25 25 25 25 26 26 26 25 25 25 25 26 26 26
36 36 35 34 33 33 30 28 28 30 31 30 29 27 28 29 30 30 30 28 26 26 26 26 27 26 25 26 26 27 27 27 27 27 27 28 28 27 26 26 27 27 28 28
34 35 34 34 34 33 30 30 32 33 33 31 30 30 31 30 29 30 32 30 29 28 28 29 29 28 28 28 29 29 29 29 29 29 29 29 29 28 28 28 29 29 29 29
33 34 34 34 34 34 33 32 33 33 35 33 32 31 32 32 31 32 33 33 32 31 31 31 31 31 30 30 31 31 31 31 31 32 31 31 31 31 30 30 30 31 31 31
32 33 35 35 35 34 34 35 36 36 35 34 33 32 32 33 33 33 33 33 34 33 33 33 33 33 33 33 33 33 33 33 33 33 33 33 33 33 32 32 32 32 33 33
34 34 34 36 36 36 36 36 37 37 36 35 35 35 34 33 35 35 34 34 34 34 34 34 34 33 33 34 34 34 34 34 35 35 35 34 35 35 35 34 35 35 35 35
36 35 36 36 37 38 38 37 37 38 38 38 37 36 36 35 35 36 36 36 35 35 35 35 35 35 34 34 35 35 36 36 36 37 37 37 37 37 37 36 37 37 37 37
35 36 38 38 39 39 39 40 39 38 39 39 39 39 37 36 36 36 36 36 36 36 36 36 36 35 35 35 35 36 37 37 38 38 38 38 39 38 38 38 38 38 37 38
36 37 38 40 39 38 38 39 40 40 39 39 39 39 38 36 35 36 36 36 36 36 36 35 35 36 35 36 37 38 38 39 39 39 40 40 40 40 40 40 39 39 38 38
Wind_Direction
159 144 130 137 126 148 158 107 89 31 20 41 27 18 15 18 28 32 38 44 46 46 44 43 43 43 43 42 44 45 45 41 45 46 41 45 57 57 53 59 60 62 57 51
185 173 178 184 178 174 190 159 122 34 18 23 15 18 6 9 16 21 29 36 42 43 40 38 39 40 40 39 40 41 41 39 39 39 41 43 48 49 45 49 54 57 47 36
197 200 201 206 199 189 203 215 176 175 32 9 359 353 353 354 8 12 17 26 34 33 35 35 34 34 35 35 36 38 38 36 35 35 35 36 40 41 39 40 42 42 34 28
202 211 209 210 206 204 214 224 208 208 243 0 328 310 334 345 344 359 6 13 21 22 25 28 29 28 27 28 29 31 31 30 28 26 27 27 33 34 32 32 31 22 15 15
211 222 221 217 214 209 206 218 209 206 220 228 283 297 313 318 321 340 355 358 3 10 15 18 18 19 18 19 21 23 23 21 20 17 17 19 20 21 20 18 17 16 9 5
213 225 224 220 219 213 215 217 205 200 233 249 256 274 287 294 299 314 334 346 345 355 5 14 15 14 13 14 14 13 15 15 12 9 9 11 12 10 9 7 5 4 2 357
218 225 225 223 222 218 220 221 226 240 253 260 261 261 274 282 289 298 311 323 335 341 349 354 0 5 9 13 13 8 11 9 7 4 3 2 1 2 1 357 352 349 349 347
224 230 229 226 225 222 220 225 228 249 269 239 247 254 265 282 291 296 295 302 316 324 331 338 343 349 357 3 6 3 4 3 360 358 357 354 352 351 347 344 342 338 337 336
218 230 235 235 232 231 226 220 231 250 254 247 243 255 259 276 286 292 292 291 300 311 316 319 326 334 337 344 350 352 356 357 356 352 350 347 343 340 338 335 334 332 330 330
214 220 224 231 236 237 229 223 233 246 249 244 249 267 266 268 281 290 291 287 285 296 300 300 308 317 322 326 332 338 341 345 348 347 345 342 338 336 335 333 328 325 324 325
222 224 225 228 230 234 232 226 226 228 231 251 256 249 258 271 284 289 292 288 279 280 290 298 302 305 309 314 320 325 330 333 335 338 340 338 336 334 332 330 328 326 322 320
222 225 227 227 233 233 232 232 232 236 234 238 257 254 252 262 274 278 282 282 280 282 286 291 293 296 301 306 310 315 319 322 323 326 329 330 332 331 329 328 326 324 322 319
220 223 224 225 229 235 236 233 230 233 243 248 256 262 260 260 260 268 272 276 278 279 282 286 287 290 295 298 302 305 308 312 314 316 319 321 325 324 324 325 324 321 320 318
223 225 223 224 226 232 236 235 234 232 237 250 256 262 262 267 260 262 270 271 275 278 281 284 284 285 289 293 296 299 301 304 307 310 312 314 317 318 319 319 319 318 315 314
226 229 228 225 224 226 233 237 240 239 237 244 252 259 258 261 263 264 268 272 275 279 281 283 283 284 286 288 290 292 296 300 302 304 307 310 311 312 314 314 314 315 314 312
228 230 230 231 228 228 233 236 238 241 244 246 246 250 257 259 263 265 268 270 277 281 281 282 281 281 283 286 288 289 292 295 298 301 303 305 307 307 308 308 308 309 309 310
232 233 233 234 231 232 235 237 242 242 243 245 249 250 257 262 263 268 272 272 273 275 279 281 281 281 281 283 286 287 289 291 294 297 299 301 302 303 305 305 305 306 307 308
234 235 236 238 237 237 237 236 241 245 245 246 248 248 254 260 265 268 271 271 272 274 275 277 278 280 281 282 284 285 286 288 291 293 296 298 298 300 303 305 304 304 304 305
235 236 236 237 240 241 238 236 238 244 246 247 248 248 253 259 263 266 269 272 271 273 273 274 276 278 281 281 282 283 285 287 289 291 293 295 296 297 299 300 301 301 302 302
237 238 237 237 238 240 240 239 240 245 248 249 252 254 255 259 261 263 266 269 271 272 272 274 276 279 279 279 280 281 283 285 287 289 290 292 293 294 296 297 299 299 301 301
236 237 237 238 239 241 242 243 242 244 247 250 253 255 257 259 260 264 267 269 270 271 271 273 275 277 278 279 280 281 282 283 284 286 287 289 291 292 294 295 297 297 298 299
235 237 238 238 237 238 240 242 242 245 248 251 254 255 257 260 261 264 267 269 270 271 272 273 275 276 276 277 278 279 280 282 283 284 285 287 289 291 292 293 294 295 296 296
236 237 239 240 241 242 240 241 245 247 249 251 253 253 256 260 262 263 266 268 270 272 273 274 275 275 275 275 276 278 279 280 281 282 284 286 287 289 290 291 292 293 293 294
237 237 239 240 242 245 247 244 247 249 251 253 255 256 259 261 264 266 267 267 268 271 273 275 276 276 276 276 277 277 278 279 280 282 283 284 286 287 289 290 290 291 291 292
239 239 240 241 244 247 249 248 250 251 253 255 257 258 259 261 265 267 268 267 269 271 273 275 276 275 276 276 277 279 279 280 281 282 283 284 286 286 287 287 288 288 289 289
240 240 242 243 246 249 250 252 252 252 253 255 257 259 261 264 265 266 267 269 270 272 272 273 274 276 276 275 276 278 279 280 280 281 283 284 284 285 286 285 286 286 286 287
Height
5915 5917 5918 5920 5922 5924 5925 5926 5926 5927 5925 5924 5923 5921 5920 5918 5916 5915 5914 5913 5911 5910 5909 5907 5906 5905 5904 5903 5902 5901 5900 5899 5898 5897 5895 5894 5894 5894 5893 5893 5892 5892 5892 5891
5917 5919 5920 5921 5923 5924 5925 5926 5927 5927 5927 5926 5925 5924 5922 5921 5919 5918 5916 5915 5914 5913 5912 5910 5909 5908 5907 5905 5904 5903 5902 5901 5900 5898 5897 5896 5896 5895 5895 5894 5894 5894 5893 5893
5917 5919 5920 5922 5923 5924 5926 5927 5928 5928 5927 5927 5926 5926 5924 5923 5921 5919 5918 5917 5916 5915 5914 5912 5911 5910 5909 5907 5906 5905 5904 5903 5901 5900 5899 5899 5898 5897 5897 5896 5895 5895 5894 5894
5915 5918 5919 5921 5923 5924 5925 5927 5927 5927 5927 5927 5928 5927 5925 5923 5922 5921 5920 5919 5918 5917 5915 5914 5913 5912 5911 5909 5908 5907 5906 5905 5903 5902 5901 5901 5900 5899 5898 5897 5897 5896 5895 5895
5914 5916 5918 5920 5922 5923 5924 5924 5925 5926 5927 5927 5928 5928 5925 5924 5923 5923 5922 5920 5919 5918 5917 5916 5914 5913 5912 5911 5910 5909 5908 5906 5905 5904 5903 5902 5901 5900 5899 5898 5898 5897 5896 5895
5913 5915 5917 5919 5920 5921 5922 5923 5924 5925 5926 5927 5928 5928 5925 5924 5923 5923 5922 5921 5920 5919 5918 5917 5916 5915 5914 5912 5911 5910 5909 5908 5906 5905 5904 5903 5902 5901 5900 5899 5898 5897 5896 5895
5911 5913 5915 5916 5918 5920 5922 5923 5924 5924 5924 5926 5927 5927 5926 5924 5924 5923 5922 5922 5921 5920 5919 5918 5917 5916 5915 5913 5912 5911 5910 5909 5907 5906 5905 5904 5903 5901 5900 5899 5898 5897 5896 5895
5909 5912 5913 5914 5916 5918 5919 5921 5923 5924 5924 5926 5927 5926 5926 5924 5923 5922 5921 5921 5920 5920 5919 5918 5917 5916 5915 5914 5913 5912 5911 5909 5908 5907 5905 5904 5903 5902 5900 5899 5898 5896 5895 5894
5907 5910 5912 5912 5914 5915 5917 5919 5922 5922 5923 5924 5925 5924 5923 5922 5922 5921 5920 5920 5920 5919 5919 5918 5917 5916 5915 5914 5913 5912 5911 5909 5908 5907 5905 5904 5903 5901 5900 5898 5897 5895 5894 5892
5902 5905 5908 5910 5911 5913 5915 5917 5921 5920 5920 5922 5923 5921 5921 5920 5920 5920 5919 5919 5918 5918 5917 5916 5916 5915 5915 5914 5913 5912 5910 5909 5908 5906 5905 5903 5902 5900 5899 5897 5895 5894 5892 5890
5898 5901 5904 5906 5908 5911 5913 5915 5916 5917 5919 5920 5920 5921 5918 5918 5918 5918 5918 5917 5916 5916 5916 5915 5915 5914 5913 5913 5912 5910 5909 5908 5907 5905 5904 5902 5901 5899 5897 5895 5893 5891 5889 5888
5893 5897 5899 5902 5905 5907 5909 5911 5914 5915 5915 5917 5917 5918 5915 5915 5916 5916 5916 5915 5914 5914 5914 5914 5913 5912 5911 5911 5910 5909 5908 5907 5905 5904 5902 5900 5899 5897 5895 5893 5891 5889 5887 5885
5888 5891 5894 5898 5903 5903 5905 5907 5909 5911 5912 5913 5914 5915 5912 5911 5913 5913 5913 5913 5912 5912 5912 5911 5911 5910 5909 5909 5908 5907 5906 5905 5903 5902 5900 5898 5897 5895 5893 5891 5889 5887 5884 5882
5882 5885 5889 5893 5897 5899 5900 5902 5905 5907 5908 5908 5910 5911 5909 5908 5907 5908 5909 5909 5909 5909 5909 5908 5908 5907 5906 5906 5905 5904 5903 5902 5900 5899 5897 5896 5894 5892 5890 5888 5886 5884 5881 5879
5876 5879 5882 5885 5889 5893 5895 5897 5899 5901 5903 5904 5906 5906 5905 5904 5904 5904 5903 5904 5904 5905 5905 5905 5904 5903 5903 5902 5901 5901 5900 5899 5897 5896 5894 5892 5890 5888 5886 5884 5882 5880 5878 5876
5868 5872 5875 5879 5882 5885 5888 5892 5894 5896 5898 5900 5900 5901 5900 5898 5898 5899 5899 5899 5900 5900 5901 5900 5899 5899 5898 5898 5897 5897 5896 5894 5893 5892 5890 5888 5886 5884 5882 5880 5878 5876 5874 5872
5861 5865 5868 5872 5876 5878 5881 5886 5888 5890 5892 5894 5895 5896 5895 5894 5893 5893 5894 5894 5895 5895 5895 5895 5895 5894 5894 5893 5893 5892 5891 5890 5888 5887 5885 5884 5882 5880 5878 5876 5873 5871 5869 5867
5854 5857 5861 5865 5868 5870 5877 5880 5882 5883 5885 5887 5887 5889 5889 5888 5888 5887 5888 5889 5889 5890 5890 5889 5889 5889 5888 5888 5887 5886 5885 5884 5883 5881 5880 5878 5876 5874 5872 5870 5868 5866 5864 5861
5845 5849 5853 5857 5860 5863 5868 5871 5874 5875 5876 5879 5880 5881 5882 5881 5882 5881 5880 5882 5883 5884 5883 5883 5882 5882 5882 5882 5881 5880 5879 5878 5877 5875 5874 5872 5870 5868 5866 5865 5863 5860 5858 5855
5837 5841 5846 5849 5852 5856 5861 5862 5864 5867 5867 5870 5872 5873 5873 5874 5875 5873 5873 5875 5876 5877 5876 5876 5876 5876 5876 5875 5874 5873 5872 5871 5870 5868 5867 5865 5863 5862 5860 5858 5856 5853 5851 5848
5829 5833 5836 5840 5843 5847 5852 5853 5855 5858 5859 5861 5863 5864 5865 5865 5866 5866 5866 5867 5868 5869 5869 5869 5869 5868 5868 5867 5867 5866 5864 5864 5862 5860 5859 5857 5856 5854 5853 5851 5849 5846 5844 5841
5822 5825 5829 5832 5835 5840 5842 5843 5846 5847 5850 5852 5854 5855 5855 5857 5858 5858 5859 5859 5859 5860 5860 5860 5860 5860 5860 5859 5858 5857 5856 5855 5854 5852 5851 5850 5848 5846 5844 5843 5841 5838 5836 5833
5814 5818 5821 5824 5827 5829 5830 5833 5835 5838 5841 5843 5845 5846 5846 5847 5848 5849 5850 5851 5851 5851 5852 5851 5851 5851 5851 5850 5849 5849 5848 5846 5845 5843 5841 5840 5839 5837 5835 5833 5831 5829 5827 5825
5806 5809 5812 5814 5817 5819 5821 5824 5825 5828 5832 5834 5835 5837 5838 5838 5839 5840 5841 5842 5842 5842 5843 5842 5842 5842 5841 5841 5840 5839 5839 5837 5836 5834 5832 5831 5830 5828 5826 5824 5822 5820 5818 5815
5796 5799 5801 5804 5807 5809 5811 5814 5817 5820 5823 5825 5827 5828 5828 5829 5830 5831 5832 5832 5833 5833 5833 5833 5832 5832 5832 5831 5830 5830 5829 5828 5827 5825 5823 5821 5820 5819 5817 5814 5812 5810 5808 5806
5787 5790 5792 5795 5798 5800 5803 5805 5807 5809 5812 5814 5817 5818 5819 5820 5821 5822 5822 5823 5823 5823 5823 5823 5823 5822 5822 5821 5821 5820 5819 5818 5817 5815 5814 5812 5810 5808 5806 5804 5802 5799 5798 5796